CST,Max TemperatureF,Mean TemperatureF,Min TemperatureF,Max Dew PointF,MeanDew PointF,Min DewpointF,Max Humidity, Mean Humidity, Min Humidity, Max Sea Level PressureIn, Mean Sea Level PressureIn, Min Sea Level PressureIn, Max VisibilityMiles, Mean VisibilityMiles, Min VisibilityMiles, Max Wind SpeedMPH, Mean Wind SpeedMPH, Max Gust SpeedMPH,PrecipitationIn, CloudCover, Events, WindDirDegrees
2011-11-1,73,63,52,47,44,39,77,56,35,29.91,29.86,29.81,10,10,10,20,9,24,0.00,1,,186
2011-11-2,55,45,34,40,37,32,100,77,54,30.32,30.10,29.88,10,6,2,35,21,41,0.36,7,Rain-Snow,4
2011-11-3,52,41,29,31,25,19,78,53,28,30.43,30.34,30.28,10,10,9,23,10,29,T,1,,322
2011-11-4,57,40,23,32,26,21,88,59,30,30.30,30.16,30.00,10,10,10,21,9,28,0.00,0,,152
2011-11-5,63,51,38,41,36,30,85,60,34,29.99,29.78,29.62,10,10,10,36,21,48,0.00,0,,161
2011-11-6,62,50,37,43,33,25,89,58,27,30.08,29.91,29.63,10,10,10,31,7,44,T,0,,322
2011-11-7,54,43,31,43,37,26,92,69,46,30.14,30.03,29.95,10,8,2,26,11,36,0.82,6,Rain-Thunderstorm,24
2011-11-8,44,40,36,43,39,34,100,93,85,30.15,30.00,29.91,10,7,3,33,16,41,0.87,8,Rain-Snow,8
2011-11-9,54,41,28,34,29,25,92,64,35,30.41,30.33,30.17,10,10,10,26,11,32,0.00,0,,309
2011-11-10,54,41,27,33,29,24,92,67,41,30.40,30.26,30.02,10,10,10,10,3,10,0.00,0,,164
2011-11-11,65,49,32,40,33,27,92,58,24,29.99,29.86,29.75,10,10,10,12,6,14,0.00,0,,198
2011-11-12,64,51,37,42,37,35,92,64,36,29.74,29.54,29.36,10,10,10,23,11,29,0.00,0,Rain,182
2011-11-13,64,53,41,40,32,24,76,50,24,29.61,29.54,29.34,10,10,10,28,8,35,0.00,0,Rain,240
2011-11-14,61,49,37,36,32,25,79,52,25,29.80,29.70,29.52,10,10,10,17,8,21,0.00,0,,250
2011-11-15,67,50,32,35,29,21,89,54,18,30.05,29.84,29.70,10,10,10,24,9,31,0.00,0,,326
2011-11-16,41,32,23,32,25,17,96,68,40,30.43,30.31,30.06,10,8,1,20,9,28,0.01,5,Snow,336
2011-11-17,51,36,20,31,24,18,88,60,32,30.44,30.24,29.93,10,10,10,26,13,36,0.00,0,,192
2011-11-18,62,50,38,43,35,27,74,60,46,29.91,29.74,29.56,10,10,10,37,20,47,0.00,0,,182
2011-11-19,57,42,26,49,34,21,89,70,51,30.17,29.79,29.46,10,10,10,30,18,35,0.00,4,,307
2011-11-20,36,32,27,25,23,21,81,70,59,30.31,30.25,30.18,10,10,10,20,9,23,0.00,7,,31
2011-11-21,39,36,33,35,30,26,92,81,69,30.27,30.17,30.09,10,9,3,10,3,13,T,8,Rain,57
2011-11-22,51,41,31,36,34,30,100,76,52,30.18,30.09,30.04,10,7,3,15,5,18,0.05,5,Rain,328
2011-11-23,64,46,28,40,33,26,92,61,30,30.23,30.17,30.13,10,10,9,12,5,13,0.00,0,,172
2011-11-24,70,55,39,48,42,38,89,63,37,30.10,29.99,29.86,10,10,9,31,15,38,0.00,0,,181
2011-11-25,66,57,48,54,49,45,100,76,52,29.84,29.75,29.69,10,7,2,36,19,41,0.30,4,Rain,194
2011-11-26,54,44,33,51,29,13,93,62,30,30.34,30.07,29.72,10,10,8,39,22,48,0.13,3,Rain,332
2011-11-27,46,36,25,16,11,4,53,36,18,30.40,30.32,30.24,10,10,10,24,13,31,0.00,0,,321
2011-11-28,51,36,20,23,19,16,84,56,27,30.23,30.15,30.06,10,10,10,14,4,17,0.00,0,,190
2011-11-29,49,37,25,29,23,12,85,54,23,30.40,30.31,30.21,10,10,10,17,7,21,0.00,0,,322
2011-11-30,54,39,23,29,24,19,88,62,35,30.25,30.04,29.90,10,10,10,25,12,32,0.00,0,,172